SCP
0 0 0 0 0 0 0 0 0 0 0 -0 0 0 0 0 0 0 0 0 0 0 -0 0 0 0 0 0 0 0 -0 -0 -0 -0 -0 -0 -0 -0 -0 -0 -0 -0 -0
0 0 0 0 0 0 0 0 0 0 0 0 0 -0 -0 0 0 0 0 0 0 0 0 0 0 0 0 0 0 0 0 -0 -0 -0 -0 -0 -0 -0 -0 -0 -0 -0 -0
0 0 0 0 0 0 0 0 0 0 0 0 0 0 0 0 0 0 0 0 0 0 0 0 0 0 0 0 0 0 0 0 0 -0 -0 -0 -0 -0 -0 -0 -0 -0 -0
0 0 0 0 0 0 0 0 0 0 0 -0 -0 -0 0 0 -0 -0 0 0 0 0 1 0 0 0 0 0 0 0 0 0 0 0 -0 -0 -0 -0 -0 -0 -0 -0 -0
0 0 0 0 0 0 0 0 0 0 0 -0 -0 -0 0 0 0 -0 0 0 0 0 0 0 0 0 0 0 0 0 0 0 0 0 0 -0 -0 -0 -0 -0 -0 -0 -0
0 0 0 0 0 0 0 0 0 0 0 0 0 0 0 0 0 0 0 -0 0 0 0 0 0 1 0 0 0 0 0 0 0 0 0 0 0 -0 -0 -0 -0 -0 -0
0 0 0 0 1 1 0 0 0 0 0 0 0 0 0 0 0 0 0 -0 -0 -0 0 0 0 0 0 0 0 0 0 0 0 0 0 0 0 0 0 -0 -0 -0 -0
0 0 0 0 1 1 1 1 1 0 0 0 0 0 0 -0 0 0 0 0 0 -0 -0 0 0 0 0 0 0 0 0 0 0 0 0 0 0 0 0 0 -0 -0 -0
0 0 0 1 1 1 1 1 1 0 0 0 0 0 0 0 -0 -0 -0 0 0 0 0 -0 -0 0 0 0 0 0 0 0 0 0 0 0 0 0 0 0 0 -0 -0
0 0 0 1 1 1 1 1 1 1 0 0 0 0 0 0 0 0 -0 -0 0 0 0 0 0 0 0 0 0 0 0 0 0 0 0 0 0 1 0 0 0 0 -0
0 0 0 0 0 0 0 0 0 0 0 0 0 0 0 0 0 0 0 -0 -0 -0 0 0 0 0 0 0 0 0 0 0 0 0 0 0 0 0 1 0 0 0 0
0 0 0 0 0 0 0 0 0 0 0 0 0 0 0 0 0 0 0 0 0 -0 -0 0 0 0 0 0 0 0 0 0 0 0 0 0 0 0 0 0 0 0 0
0 0 0 0 0 0 0 0 0 0 0 0 0 0 0 0 0 0 0 0 0 0 0 0 0 0 0 0 0 0 0 0 0 1 0 0 1 1 1 1 0 0 1
0 0 0 0 0 0 0 0 0 0 0 0 0 0 0 0 0 0 0 0 0 0 0 0 0 0 0 0 0 0 0 0 0 0 0 0 0 0 0 1 1 0 0
0 0 0 0 0 0 0 0 0 0 0 0 0 0 0 0 0 0 0 0 0 0 0 0 0 0 0 0 0 0 0 0 0 0 0 0 0 0 0 0 0 0 0
0 0 0 0 0 0 0 0 0 0 0 0 0 0 0 0 0 0 0 0 0 0 0 0 0 0 0 0 0 0 0 0 0 0 0 0 0 0 0 0 0 0 0
0 0 0 0 0 0 0 0 0 0 0 0 0 0 0 0 0 0 0 0 0 0 0 0 0 0 0 0 0 0 0 0 0 0 0 0 0 0 0 0 0 0 0
0 0 0 0 0 0 0 0 0 0 0 0 0 0 0 0 0 0 0 0 0 0 0 0 0 0 0 0 0 0 0 0 0 0 0 0 0 0 0 0 0 0 0
0 0 0 0 0 0 0 0 0 0 0 0 0 0 0 0 0 0 0 0 0 0 0 0 0 0 0 0 0 0 0 0 0 0 0 0 0 0 0 0 0 0 0
0 0 0 0 0 0 0 0 0 0 0 0 0 0 0 0 0 0 0 0 0 0 0 0 0 0 0 0 0 0 0 0 0 0 0 0 0 0 0 0 0 0 0
0 0 0 0 0 0 0 0 0 0 0 0 0 0 0 0 0 0 0 0 0 0 0 0 0 0 0 0 0 0 0 0 0 0 0 0 0 0 0 0 0 0 0
0 0 0 0 0 0 0 0 0 0 0 0 0 0 0 0 0 0 0 0 0 0 0 0 0 0 0 0 0 0 0 0 0 0 0 0 0 0 0 0 0 0 0
0 0 0 0 0 0 0 0 0 0 0 0 0 0 0 0 0 0 0 0 0 -0 0 0 0 0 0 0 0 0 0 0 0 0 0 0 0 0 0 0 0 0 0
0 0 0 0 0 0 0 0 0 0 0 0 0 0 0 0 0 -0 0 -0 0 0 0 0 0 0 0 0 0 0 0 0 0 0 0 0 0 0 0 0 0 0 0
0 0 0 0 0 0 0 0 0 0 0 0 0 0 0 0 -0 -0 0 -0 0 0 0 0 -0 -0 -0 0 0 0 0 0 0 0 0 0 0 0 0 0 0 0 0
0 0 0 0 0 0 0 0 0 0 0 0 0 0 0 0 -0 -0 0 0 0 0 0 -0 0 -0 0 0 0 0 0 0 0 0 0 0 0 0 0 0 0 0 0
Wind_Speed_500mb
14 13 15 19 21 23 23 23 27 25 26 26 26 27 31 31 28 31 41 42 37 31 35 34 29 28 30 29 29 31 33 33 33 33 33 32 32 31 31 30 28 28 26
18 15 18 21 24 27 30 31 33 32 34 36 30 26 30 33 35 34 37 42 43 44 36 37 35 32 31 33 34 35 35 36 33 33 35 35 34 34 33 34 32 32 31
15 16 19 19 25 24 29 33 39 36 35 36 38 36 38 40 37 36 35 37 45 53 50 44 39 38 35 35 37 35 36 36 36 33 34 36 37 37 37 36 35 35 34
16 19 22 21 22 26 30 32 36 43 44 42 41 38 42 43 47 43 39 49 42 49 58 56 51 47 45 42 44 41 40 39 36 35 35 35 35 36 37 38 37 37 35
23 21 24 27 27 30 32 34 39 43 45 45 47 51 54 54 53 54 53 46 49 44 47 52 55 54 53 52 53 53 48 43 42 38 35 35 37 38 38 38 37 37 36
32 30 22 19 26 29 30 34 39 40 37 39 45 48 47 51 54 49 46 46 47 51 52 54 51 52 58 59 55 54 55 48 44 43 38 36 37 40 40 40 40 39 40
17 17 18 19 23 29 30 36 42 40 36 36 42 44 45 44 40 39 38 35 45 36 43 46 56 60 60 61 62 60 61 61 55 50 46 43 41 42 42 42 43 41 40
23 19 23 26 29 31 34 38 42 43 42 39 41 45 39 58 38 36 45 41 31 39 45 45 44 42 52 61 61 59 63 65 63 59 58 55 48 45 45 45 45 45 42
19 24 28 34 36 39 42 42 41 40 42 43 39 33 25 19 62 59 59 53 45 46 51 50 48 58 53 54 58 62 62 65 67 65 64 58 57 53 48 49 49 49 46
25 29 35 38 39 44 38 35 37 41 40 39 38 37 36 42 47 48 50 59 58 53 50 47 45 46 43 49 46 47 60 65 68 68 67 68 65 61 56 51 51 53 52
34 36 40 41 44 39 35 36 38 38 39 39 33 34 38 40 41 46 56 66 71 67 64 59 54 52 49 55 57 58 60 65 71 70 65 66 69 67 68 61 56 57 59
39 41 41 43 40 39 38 38 35 32 31 33 34 35 37 41 46 49 61 73 78 83 78 75 68 60 55 53 55 55 60 53 61 68 67 63 64 67 74 73 68 62 59
37 39 39 39 37 38 37 35 34 30 28 31 35 39 40 45 49 53 64 76 80 89 91 89 84 75 67 62 55 59 61 56 54 55 63 65 62 61 64 74 72 68 65
39 39 39 36 35 35 31 29 28 32 36 39 41 40 44 47 53 60 65 76 96 98 95 94 92 88 81 75 70 60 60 64 61 60 67 65 62 63 67 65 72 68 65
40 41 39 36 33 27 26 29 28 33 42 44 46 49 53 58 64 72 79 81 85 87 113 94 89 95 90 85 80 74 69 65 59 61 62 67 65 61 61 64 66 68 64
46 41 38 32 26 25 27 32 36 40 44 47 50 55 61 66 77 81 86 93 93 90 101 108 101 92 93 93 87 82 78 70 66 62 63 63 66 65 67 74 71 68 62
45 41 34 26 23 25 31 32 38 40 44 53 60 65 72 81 83 90 95 99 99 84 98 102 111 104 89 96 93 85 78 76 73 68 68 69 67 65 67 71 68 68 66
43 36 30 24 21 25 31 31 35 41 51 60 63 70 76 79 89 93 93 86 80 86 88 96 96 92 85 77 80 85 82 81 79 72 67 71 65 60 64 62 57 69 65
34 32 26 22 22 25 23 31 40 47 57 64 64 71 77 85 91 87 84 89 96 95 92 92 102 96 91 78 76 86 84 80 76 72 69 72 70 66 63 66 54 59 64
33 29 24 21 22 24 27 34 43 51 62 68 68 72 77 85 91 91 90 93 97 101 96 92 96 99 85 73 75 81 83 65 68 64 67 68 70 62 60 61 63 64 61
29 25 22 22 20 24 27 36 45 54 66 67 70 65 78 81 89 89 95 99 82 78 81 84 88 88 83 76 73 71 68 54 59 54 61 67 70 59 56 62 68 73 63
27 23 22 22 21 27 27 38 47 53 65 66 73 69 78 81 90 95 98 90 76 68 73 75 80 83 81 72 58 54 50 53 50 52 59 63 64 65 60 62 61 69 67
23 23 23 26 25 27 32 38 45 55 64 64 71 69 82 87 97 106 111 77 68 51 57 72 73 80 77 67 50 51 45 55 58 46 26 30 46 53 52 54 58 50 50
23 22 24 24 27 32 36 40 48 57 65 64 65 60 73 84 89 105 98 68 50 45 38 44 59 61 66 63 57 49 39 42 48 48 45 48 38 37 38 43 48 48 36
21 22 22 22 27 31 38 43 52 61 66 61 65 60 64 75 88 106 77 55 50 53 43 48 53 52 42 43 40 52 41 30 37 40 37 39 34 25 12 13 21 27 38
25 26 22 23 28 33 35 44 53 59 58 55 55 61 59 68 84 106 80 73 44 56 76 38 24 36 41 33 30 41 39 33 26 24 26 29 29 25 12 20 28 31 33
Wind_Direction_500mb
346 358 350 332 308 305 311 310 316 307 293 306 305 290 298 295 287 274 272 273 274 268 269 276 277 275 273 272 276 279 274 267 265 264 265 264 258 255 259 259 259 259 258
306 315 328 338 334 310 302 294 299 300 293 290 309 294 288 293 280 276 271 262 258 266 271 270 273 278 276 274 271 276 277 272 268 267 264 263 263 259 254 259 264 263 264
290 283 309 317 333 323 318 297 295 300 305 301 291 292 290 291 284 278 281 274 262 254 260 265 264 270 274 280 277 270 272 274 273 270 270 265 263 261 259 256 254 260 263
286 281 293 306 319 327 321 315 303 301 299 298 296 292 290 286 283 279 287 284 268 262 256 258 263 263 268 274 275 272 264 263 269 269 269 271 268 264 262 260 259 258 261
290 296 304 307 312 313 317 318 310 304 293 294 292 293 284 287 286 284 292 287 261 270 268 263 259 262 264 267 268 268 268 263 262 264 264 266 268 267 264 262 261 262 263
279 292 308 311 301 303 311 310 312 313 306 303 294 294 297 283 291 291 285 282 270 275 273 268 268 266 262 263 264 264 264 263 265 262 263 262 263 263 262 262 262 264 265
266 282 298 301 299 296 302 307 310 311 313 315 313 307 300 297 299 302 291 304 276 272 278 276 268 267 267 263 256 260 263 261 260 260 265 266 265 258 260 260 262 263 266
255 278 291 288 293 297 295 293 296 304 307 313 314 313 314 306 309 297 299 304 292 276 285 288 278 280 272 267 263 254 258 261 260 261 260 261 264 261 259 258 261 264 262
254 269 285 295 298 292 296 288 291 299 299 301 304 308 314 299 310 308 305 303 300 296 294 288 277 280 270 277 266 262 258 258 259 258 261 261 258 260 263 262 260 260 261
253 267 285 292 295 301 302 298 294 299 302 303 301 300 296 298 306 310 308 303 302 298 296 289 279 276 282 260 268 269 263 259 257 258 260 259 258 258 259 264 261 260 258
258 270 281 289 298 303 303 302 302 300 299 300 300 299 297 297 296 300 305 307 302 301 299 296 289 283 272 264 268 264 262 266 260 257 258 259 258 257 255 261 263 261 259
255 267 278 291 299 308 311 311 311 308 305 301 300 298 298 301 303 305 305 304 302 300 300 296 292 287 283 273 265 265 261 270 265 259 258 256 259 258 257 253 255 259 260
257 267 284 291 303 307 312 314 317 317 312 309 305 301 298 297 299 301 306 305 304 299 296 292 292 291 286 281 275 266 261 263 261 258 260 260 265 264 261 257 251 251 259
263 271 283 294 299 303 305 306 312 314 310 311 310 306 300 296 297 301 305 306 304 300 297 291 290 289 288 282 278 273 269 266 263 263 260 261 265 267 264 260 257 249 246
262 276 287 293 297 302 311 313 314 313 309 310 309 307 306 308 307 304 301 301 298 289 290 290 286 288 287 288 285 278 271 266 265 261 261 259 269 266 269 262 256 248 245
266 276 283 293 300 310 315 313 315 313 312 315 315 312 309 310 311 307 303 301 297 284 276 292 286 282 283 284 282 279 272 267 259 255 251 254 259 263 268 257 256 250 244
266 274 284 293 301 316 319 318 321 321 319 317 315 312 310 311 310 309 307 300 292 284 270 276 284 284 279 280 278 274 270 264 262 255 252 250 256 260 258 256 253 246 247
264 275 283 290 304 315 313 319 326 324 326 324 322 318 315 315 314 313 312 307 294 289 278 274 276 281 278 271 269 272 268 263 259 252 250 246 252 251 252 249 248 242 249
267 272 278 290 303 309 302 325 326 327 328 325 325 326 325 323 320 319 319 308 299 290 283 274 277 283 280 269 267 271 269 266 253 250 245 244 246 246 253 251 258 250 241
264 268 278 283 300 296 302 321 325 327 331 328 326 326 327 328 332 325 315 309 300 291 289 277 273 277 271 266 264 267 272 266 251 243 242 247 242 246 250 247 245 255 234
260 270 269 281 292 292 313 320 324 330 334 334 334 331 332 332 335 325 315 309 298 284 281 274 268 268 265 266 264 267 263 254 257 243 243 244 242 243 239 243 251 243 239
261 263 270 281 279 294 310 320 321 327 336 335 337 335 343 348 346 335 324 314 306 284 272 265 267 261 261 262 266 254 246 247 246 245 243 244 240 240 243 245 247 241 256
256 258 268 272 275 292 305 315 321 325 334 335 338 335 343 351 346 344 331 324 309 298 269 261 258 262 261 258 247 260 244 242 244 248 258 253 239 251 257 255 243 245 255
250 258 274 277 291 298 305 313 319 325 332 338 340 339 342 349 352 350 338 326 326 317 293 269 258 263 262 260 247 241 248 253 252 256 254 258 252 254 262 258 240 229 254
248 256 271 275 291 298 304 312 318 326 332 336 344 344 345 353 355 359 347 343 331 326 313 284 269 259 255 252 242 235 246 254 252 250 250 246 256 260 242 200 214 247 259
242 256 257 274 291 298 304 314 317 326 329 337 351 350 353 360 4 3 3 11 17 28 12 334 270 258 244 235 229 227 233 254 249 265 249 236 238 228 250 271 265 265 265
Wind_Speed_850mb
14 13 15 19 21 23 23 23 27 25 26 26 26 27 31 31 28 31 41 42 37 31 35 34 29 28 30 29 29 31 33 33 33 33 33 32 32 31 31 30 28 28 26
18 15 18 21 24 27 30 31 33 32 34 36 30 26 30 33 35 34 37 42 43 44 36 37 35 32 31 33 34 35 35 36 33 33 35 35 34 34 33 34 32 32 31
15 16 19 19 25 24 29 33 39 36 35 36 38 36 38 40 37 36 35 37 45 53 50 44 39 38 35 35 37 35 36 36 36 33 34 36 37 37 37 36 35 35 34
16 19 22 21 22 26 30 32 36 43 44 42 41 38 42 43 47 43 39 49 42 49 58 56 51 47 45 42 44 41 40 39 36 35 35 35 35 36 37 38 37 37 35
23 21 24 27 27 30 32 34 39 43 45 45 47 51 54 54 53 54 53 46 49 44 47 52 55 54 53 52 53 53 48 43 42 38 35 35 37 38 38 38 37 37 36
32 30 22 19 26 29 30 34 39 40 37 39 45 48 47 51 54 49 46 46 47 51 52 54 51 52 58 59 55 54 55 48 44 43 38 36 37 40 40 40 40 39 40
17 17 18 19 23 29 30 36 42 40 36 36 42 44 45 44 40 39 38 35 45 36 43 46 56 60 60 61 62 60 61 61 55 50 46 43 41 42 42 42 43 41 40
23 19 23 26 29 31 34 38 42 43 42 39 41 45 39 58 38 36 45 41 31 39 45 45 44 42 52 61 61 59 63 65 63 59 58 55 48 45 45 45 45 45 42
19 24 28 34 36 39 42 42 41 40 42 43 39 33 25 19 62 59 59 53 45 46 51 50 48 58 53 54 58 62 62 65 67 65 64 58 57 53 48 49 49 49 46
25 29 35 38 39 44 38 35 37 41 40 39 38 37 36 42 47 48 50 59 58 53 50 47 45 46 43 49 46 47 60 65 68 68 67 68 65 61 56 51 51 53 52
34 36 40 41 44 39 35 36 38 38 39 39 33 34 38 40 41 46 56 66 71 67 64 59 54 52 49 55 57 58 60 65 71 70 65 66 69 67 68 61 56 57 59
39 41 41 43 40 39 38 38 35 32 31 33 34 35 37 41 46 49 61 73 78 83 78 75 68 60 55 53 55 55 60 53 61 68 67 63 64 67 74 73 68 62 59
37 39 39 39 37 38 37 35 34 30 28 31 35 39 40 45 49 53 64 76 80 89 91 89 84 75 67 62 55 59 61 56 54 55 63 65 62 61 64 74 72 68 65
39 39 39 36 35 35 31 29 28 32 36 39 41 40 44 47 53 60 65 76 96 98 95 94 92 88 81 75 70 60 60 64 61 60 67 65 62 63 67 65 72 68 65
40 41 39 36 33 27 26 29 28 33 42 44 46 49 53 58 64 72 79 81 85 87 113 94 89 95 90 85 80 74 69 65 59 61 62 67 65 61 61 64 66 68 64
46 41 38 32 26 25 27 32 36 40 44 47 50 55 61 66 77 81 86 93 93 90 101 108 101 92 93 93 87 82 78 70 66 62 63 63 66 65 67 74 71 68 62
45 41 34 26 23 25 31 32 38 40 44 53 60 65 72 81 83 90 95 99 99 84 98 102 111 104 89 96 93 85 78 76 73 68 68 69 67 65 67 71 68 68 66
43 36 30 24 21 25 31 31 35 41 51 60 63 70 76 79 89 93 93 86 80 86 88 96 96 92 85 77 80 85 82 81 79 72 67 71 65 60 64 62 57 69 65
34 32 26 22 22 25 23 31 40 47 57 64 64 71 77 85 91 87 84 89 96 95 92 92 102 96 91 78 76 86 84 80 76 72 69 72 70 66 63 66 54 59 64
33 29 24 21 22 24 27 34 43 51 62 68 68 72 77 85 91 91 90 93 97 101 96 92 96 99 85 73 75 81 83 65 68 64 67 68 70 62 60 61 63 64 61
29 25 22 22 20 24 27 36 45 54 66 67 70 65 78 81 89 89 95 99 82 78 81 84 88 88 83 76 73 71 68 54 59 54 61 67 70 59 56 62 68 73 63
27 23 22 22 21 27 27 38 47 53 65 66 73 69 78 81 90 95 98 90 76 68 73 75 80 83 81 72 58 54 50 53 50 52 59 63 64 65 60 62 61 69 67
23 23 23 26 25 27 32 38 45 55 64 64 71 69 82 87 97 106 111 77 68 51 57 72 73 80 77 67 50 51 45 55 58 46 26 30 46 53 52 54 58 50 50
23 22 24 24 27 32 36 40 48 57 65 64 65 60 73 84 89 105 98 68 50 45 38 44 59 61 66 63 57 49 39 42 48 48 45 48 38 37 38 43 48 48 36
21 22 22 22 27 31 38 43 52 61 66 61 65 60 64 75 88 106 77 55 50 53 43 48 53 52 42 43 40 52 41 30 37 40 37 39 34 25 12 13 21 27 38
25 26 22 23 28 33 35 44 53 59 58 55 55 61 59 68 84 106 80 73 44 56 76 38 24 36 41 33 30 41 39 33 26 24 26 29 29 25 12 20 28 31 33
Wind_Direction_850mb
346 358 350 332 308 305 311 310 316 307 293 306 305 290 298 295 287 274 272 273 274 268 269 276 277 275 273 272 276 279 274 267 265 264 265 264 258 255 259 259 259 259 258
306 315 328 338 334 310 302 294 299 300 293 290 309 294 288 293 280 276 271 262 258 266 271 270 273 278 276 274 271 276 277 272 268 267 264 263 263 259 254 259 264 263 264
290 283 309 317 333 323 318 297 295 300 305 301 291 292 290 291 284 278 281 274 262 254 260 265 264 270 274 280 277 270 272 274 273 270 270 265 263 261 259 256 254 260 263
286 281 293 306 319 327 321 315 303 301 299 298 296 292 290 286 283 279 287 284 268 262 256 258 263 263 268 274 275 272 264 263 269 269 269 271 268 264 262 260 259 258 261
290 296 304 307 312 313 317 318 310 304 293 294 292 293 284 287 286 284 292 287 261 270 268 263 259 262 264 267 268 268 268 263 262 264 264 266 268 267 264 262 261 262 263
279 292 308 311 301 303 311 310 312 313 306 303 294 294 297 283 291 291 285 282 270 275 273 268 268 266 262 263 264 264 264 263 265 262 263 262 263 263 262 262 262 264 265
266 282 298 301 299 296 302 307 310 311 313 315 313 307 300 297 299 302 291 304 276 272 278 276 268 267 267 263 256 260 263 261 260 260 265 266 265 258 260 260 262 263 266
255 278 291 288 293 297 295 293 296 304 307 313 314 313 314 306 309 297 299 304 292 276 285 288 278 280 272 267 263 254 258 261 260 261 260 261 264 261 259 258 261 264 262
254 269 285 295 298 292 296 288 291 299 299 301 304 308 314 299 310 308 305 303 300 296 294 288 277 280 270 277 266 262 258 258 259 258 261 261 258 260 263 262 260 260 261
253 267 285 292 295 301 302 298 294 299 302 303 301 300 296 298 306 310 308 303 302 298 296 289 279 276 282 260 268 269 263 259 257 258 260 259 258 258 259 264 261 260 258
258 270 281 289 298 303 303 302 302 300 299 300 300 299 297 297 296 300 305 307 302 301 299 296 289 283 272 264 268 264 262 266 260 257 258 259 258 257 255 261 263 261 259
255 267 278 291 299 308 311 311 311 308 305 301 300 298 298 301 303 305 305 304 302 300 300 296 292 287 283 273 265 265 261 270 265 259 258 256 259 258 257 253 255 259 260
257 267 284 291 303 307 312 314 317 317 312 309 305 301 298 297 299 301 306 305 304 299 296 292 292 291 286 281 275 266 261 263 261 258 260 260 265 264 261 257 251 251 259
263 271 283 294 299 303 305 306 312 314 310 311 310 306 300 296 297 301 305 306 304 300 297 291 290 289 288 282 278 273 269 266 263 263 260 261 265 267 264 260 257 249 246
262 276 287 293 297 302 311 313 314 313 309 310 309 307 306 308 307 304 301 301 298 289 290 290 286 288 287 288 285 278 271 266 265 261 261 259 269 266 269 262 256 248 245
266 276 283 293 300 310 315 313 315 313 312 315 315 312 309 310 311 307 303 301 297 284 276 292 286 282 283 284 282 279 272 267 259 255 251 254 259 263 268 257 256 250 244
266 274 284 293 301 316 319 318 321 321 319 317 315 312 310 311 310 309 307 300 292 284 270 276 284 284 279 280 278 274 270 264 262 255 252 250 256 260 258 256 253 246 247
264 275 283 290 304 315 313 319 326 324 326 324 322 318 315 315 314 313 312 307 294 289 278 274 276 281 278 271 269 272 268 263 259 252 250 246 252 251 252 249 248 242 249
267 272 278 290 303 309 302 325 326 327 328 325 325 326 325 323 320 319 319 308 299 290 283 274 277 283 280 269 267 271 269 266 253 250 245 244 246 246 253 251 258 250 241
264 268 278 283 300 296 302 321 325 327 331 328 326 326 327 328 332 325 315 309 300 291 289 277 273 277 271 266 264 267 272 266 251 243 242 247 242 246 250 247 245 255 234
260 270 269 281 292 292 313 320 324 330 334 334 334 331 332 332 335 325 315 309 298 284 281 274 268 268 265 266 264 267 263 254 257 243 243 244 242 243 239 243 251 243 239
261 263 270 281 279 294 310 320 321 327 336 335 337 335 343 348 346 335 324 314 306 284 272 265 267 261 261 262 266 254 246 247 246 245 243 244 240 240 243 245 247 241 256
256 258 268 272 275 292 305 315 321 325 334 335 338 335 343 351 346 344 331 324 309 298 269 261 258 262 261 258 247 260 244 242 244 248 258 253 239 251 257 255 243 245 255
250 258 274 277 291 298 305 313 319 325 332 338 340 339 342 349 352 350 338 326 326 317 293 269 258 263 262 260 247 241 248 253 252 256 254 258 252 254 262 258 240 229 254
248 256 271 275 291 298 304 312 318 326 332 336 344 344 345 353 355 359 347 343 331 326 313 284 269 259 255 252 242 235 246 254 252 250 250 246 256 260 242 200 214 247 259
242 256 257 274 291 298 304 314 317 326 329 337 351 350 353 360 4 3 3 11 17 28 12 334 270 258 244 235 229 227 233 254 249 265 249 236 238 228 250 271 265 265 265